Location: Carnières
(50.1682°N, 3.3474°E)
Time: 05:48:49
(UTC+00:00)

MOZ.5/SAFIR/RUBIN 5/SL-8 - Pass Details

Date: 08 August 2024
Orbit: 671 x 698 km, 98.3° (Epoch: 08 September)

Event Time Altitude Azimuth Distance (km) Brightness Sun altitude
Exits shadow 02:25:37 21° 252° (WSW) 1,532 5.1 -15.7°
Maximum altitude 02:26:31 22° 268° (W) 1,488 5.1 -15.6°
Drops below altitude 10° 02:30:11 10° 320° (NW) 2,160 6.5 -15.3°
Sets 02:32:55 0° 335° (NNW) 3,087 7.5 -15.0°
